Tracking 19149 objects as of 21-Apr-2018
HD Live streaming from Space Station
objects crossing your sky now

FENGYUN 1C DEB

Track FENGYUN 1C DEB now!
10-day predictions


NORAD ID: 29997
Int'l Code: 1999-025LX
Perigee: 852.6 km
Apogee: 972.3 km
Inclination: 99.1 °
Period: 103.1 minutes
Semi major axis: 7283 km
RCS: 0.0999 m2 (small)
Launch date: May 10, 1999
Source: People's Republic of China (PRC)
Launch site: Taiyaun Space Center, China (TSC)

Note: This is SATELLITE DEBRIS
aabbcc
Your satellite tracking list
Your tracking list is empty




NASA's NSSDC Master Catalog

Two Line Element Set (TLE):
1 29997U 99025LX  18110.33529251  .00000229  00000-0  19079-3 0  9994
2 29997  99.1146 144.0540 0082138 106.5615 318.9329 13.96681986573717
Source of the keplerian elements: AFSPC